RH
92 88 73 75 51 38 43 35 29 28 33 35 37 40 42 38 41 35 25 21 15 22 22 19 14 10 10 9 10 9 8 10 10 10 14 17 18 19 18 18 18 22 25 29
93 99 88 74 66 40 44 41 29 29 26 27 30 34 39 48 37 43 33 26 20 14 16 21 20 15 12 10 11 10 8 9 10 11 12 14 18 19 19 19 20 22 24 28
95 100 94 70 67 47 44 43 34 29 28 29 27 30 29 44 50 37 44 34 27 18 13 13 17 19 15 12 10 12 11 10 11 12 15 14 16 18 21 22 21 22 23 26
100 100 98 68 65 65 48 40 40 29 29 30 26 31 31 34 45 51 38 44 35 28 21 13 13 15 17 15 12 10 12 12 12 14 15 15 17 19 20 22 23 23 25 26
100 99 91 89 65 64 56 43 42 28 29 32 30 28 31 36 37 43 46 40 43 35 28 21 15 12 13 16 15 14 12 12 14 15 17 18 18 18 21 21 24 25 26 26
100 93 100 97 89 63 66 53 42 34 29 31 32 28 30 34 36 35 40 44 43 43 39 31 21 16 15 14 15 16 15 15 14 15 18 19 22 24 25 24 25 25 26 26
85 96 100 98 92 72 62 64 47 43 29 30 30 28 28 31 33 30 30 37 46 42 41 41 35 26 19 17 16 16 17 17 16 16 18 20 20 24 27 29 26 25 27 24
74 92 100 87 81 81 68 70 63 44 37 30 29 30 27 29 33 32 28 30 36 43 40 40 40 39 30 25 23 20 16 17 18 17 16 17 20 23 28 29 28 29 27 26
62 95 97 88 82 80 92 74 73 59 48 34 30 26 28 29 30 36 33 29 30 38 44 40 39 38 39 34 28 26 22 20 18 18 19 19 20 22 25 27 30 33 31 28
69 82 94 96 86 63 79 85 87 62 55 44 34 29 25 26 27 31 30 28 26 28 34 45 40 35 34 37 38 32 26 25 22 21 20 22 24 25 26 29 32 33 32 33
73 70 82 100 93 76 60 81 81 89 62 50 35 34 28 26 28 28 27 28 26 25 27 30 33 31 37 31 31 35 37 33 27 24 24 24 24 26 27 32 35 35 35 36
82 81 76 100 98 91 66 66 77 96 78 61 50 37 35 27 28 29 28 26 26 25 27 27 27 27 28 28 31 31 28 30 33 34 35 32 30 29 29 30 31 33 34 34
93 89 78 100 100 92 82 63 77 87 99 82 65 54 39 33 29 32 35 30 31 31 29 32 32 31 32 31 29 27 27 26 27 28 27 28 30 32 33 34 35 35 35 36
95 94 100 100 100 100 84 78 70 90 92 100 85 76 58 43 37 33 34 38 35 36 46 48 48 47 44 40 38 37 34 33 32 30 26 24 24 26 26 28 30 32 32 30
100 100 100 100 100 100 89 96 83 83 95 94 99 89 84 63 50 46 40 35 38 41 41 44 53 57 61 62 60 56 51 46 40 35 34 33 31 27 25 27 28 28 28 28
89 100 100 100 100 100 99 88 97 85 93 94 87 100 96 94 68 63 58 57 38 37 41 46 52 52 62 78 87 72 72 70 68 59 51 46 44 44 44 43 40 35 33 32
100 100 100 100 100 100 100 97 99 92 87 92 93 93 100 100 100 85 74 75 70 68 63 51 53 69 70 66 77 100 89 88 89 98 92 80 69 63 64 65 60 62 68 68
100 99 100 100 100 100 100 100 100 90 76 83 100 100 99 96 94 96 100 96 96 89 84 92 100 100 100 100 95 98 100 100 98 98 96 94 92 98 96 96 92 84 83 85
100 100 100 100 100 100 100 100 100 100 76 92 100 100 100 100 99 86 82 96 100 100 100 99 96 100 90 91 94 100 100 100 100 99 96 97 100 97 99 100 100 100 99 94
100 100 100 91 92 100 100 100 99 91 89 100 100 100 100 100 100 100 98 88 94 100 100 100 100 100 79 90 98 100 100 100 99 98 94 90 85 86 89 96 99 96 94 83
100 100 100 100 84 94 93 99 100 90 90 100 100 100 100 99 100 100 100 100 100 100 100 100 100 92 82 100 100 100 96 89 85 87 92 98 99 99 98 90 90 90 90 92
99 100 100 100 95 86 78 73 81 97 97 100 100 100 100 100 100 100 100 100 100 100 100 100 100 100 100 100 100 97 100 100 100 100 100 100 100 100 100 100 100 100 100 98
99 100 100 100 100 92 82 58 63 99 100 100 100 100 100 100 100 100 98 82 89 100 100 100 100 100 100 100 100 100 100 100 100 100 100 100 98 92 89 87 98 99 99 98
74 80 92 92 90 87 98 87 80 75 100 96 100 100 100 100 100 100 100 69 68 91 100 100 100 100 100 100 100 100 100 100 100 100 100 98 99 100 94 84 88 93 94 91
73 63 66 72 75 88 87 99 90 77 91 98 98 100 100 100 95 97 100 100 100 94 100 87 89 99 100 100 99 100 100 99 99 100 100 100 95 92 83 83 79 74 70 65
59 63 49 58 69 89 91 92 92 79 85 96 93 87 96 98 84 88 98 100 100 100 100 70 61 63 72 94 97 91 92 98 100 97 93 94 88 87 86 78 63 56 54 52
48 60 70 61 58 65 62 80 96 93 86 100 100 98 90 86 92 82 81 100 100 88 65 73 85 79 74 81 74 74 81 79 68 66 68 71 75 66 58 59 59 55 55 51
Wind_Speed
31 26 25 24 22 18 18 21 26 30 33 36 39 45 52 60 62 66 62 53 39 33 28 23 20 13 7 10 14 26 38 49 56 65 72 80 85 89 89 87 83 79 77 77
33 26 24 22 21 19 17 19 23 26 30 33 35 39 46 52 60 61 64 60 52 37 29 23 18 15 11 8 11 18 31 39 47 59 67 77 83 86 86 87 84 81 79 76
34 27 24 22 19 17 16 18 20 22 25 30 32 35 39 45 52 59 59 61 59 51 38 27 20 14 11 9 10 17 24 33 41 49 62 65 72 78 83 84 83 82 80 77
33 26 25 24 17 15 16 16 17 19 21 25 29 30 33 38 44 51 57 57 58 55 49 37 26 19 13 9 9 12 16 25 32 42 50 56 66 72 77 80 82 81 80 78
34 29 28 27 23 16 16 15 15 16 18 21 25 26 28 33 38 43 48 55 56 57 55 48 37 24 18 12 9 9 15 15 23 32 40 48 53 61 70 75 77 78 78 77
36 33 31 29 27 22 16 18 14 14 15 15 19 23 24 27 32 36 40 46 52 54 55 53 46 36 26 19 14 11 11 16 21 24 32 39 45 54 63 70 74 76 74 75
44 37 36 31 30 28 23 18 17 13 13 13 13 17 19 23 27 30 34 37 43 48 52 52 52 48 37 28 21 15 14 15 20 25 28 34 41 48 57 64 68 70 72 70
42 41 37 36 32 27 24 20 21 17 13 11 10 11 14 20 19 24 28 31 35 40 44 48 49 50 48 40 31 24 18 18 17 21 25 28 33 39 46 54 59 63 65 63
47 46 43 37 35 31 26 22 20 23 17 13 9 8 9 13 15 17 21 24 28 32 37 40 43 45 46 46 43 35 29 24 21 22 23 24 27 31 36 42 48 53 53 53
52 49 47 43 39 38 30 27 21 23 22 17 10 8 5 6 9 12 14 18 21 24 26 30 34 38 40 43 44 43 38 33 29 25 23 23 22 22 24 29 35 39 39 40
58 53 48 45 45 42 36 31 26 22 26 22 17 11 10 4 3 7 8 11 16 19 22 24 27 30 32 35 37 39 40 38 34 30 26 23 21 20 20 22 24 26 27 28
63 56 51 49 48 47 43 36 32 27 25 28 24 18 14 10 5 3 3 5 9 14 15 17 20 24 27 27 28 30 32 33 33 32 30 26 21 18 16 14 14 15 16 19
69 62 56 52 52 49 47 43 37 32 28 29 30 25 21 17 13 10 6 2 3 6 10 13 14 16 17 19 22 23 24 24 23 22 21 22 21 20 18 17 15 14 12 12
74 70 62 58 56 53 50 47 43 40 34 30 33 32 29 25 20 17 15 11 7 4 1 2 4 7 9 11 12 13 13 12 12 12 12 10 8 6 4 4 6 9 10 12
79 72 67 62 59 58 55 51 49 47 42 38 32 36 33 32 29 25 22 21 18 15 12 10 7 6 3 4 7 6 7 8 8 6 5 7 8 9 9 10 11 14 17 20
81 78 72 68 67 60 59 54 54 51 48 45 40 34 38 36 36 33 31 29 26 23 21 19 17 16 14 11 11 14 14 15 14 13 14 14 16 17 19 21 24 27 29 32
87 79 77 74 69 64 61 59 57 56 53 50 46 42 39 41 41 40 39 36 33 32 30 29 27 27 28 26 20 22 22 23 22 24 26 28 30 32 33 35 36 36 38 40
93 87 84 82 75 70 65 62 59 59 56 52 47 47 48 44 42 44 44 43 41 40 38 37 35 36 38 39 31 32 31 33 33 34 35 38 39 41 44 45 45 47 49 52
89 89 88 86 82 75 70 68 67 62 57 52 50 52 52 49 47 46 45 46 47 47 46 45 46 48 49 47 45 44 43 44 45 46 48 48 48 50 51 53 55 56 57 59
93 95 95 91 82 82 79 73 72 64 59 54 54 53 53 55 55 52 50 47 44 42 44 46 49 55 54 53 53 52 52 52 52 52 53 54 54 54 55 56 59 62 66 69
98 98 94 92 89 89 85 79 72 70 65 61 64 61 61 60 60 61 57 54 52 49 50 49 52 58 56 53 51 53 54 55 55 55 55 56 57 58 60 63 65 68 71 74
97 99 98 96 95 94 90 83 71 72 71 65 67 70 70 68 64 63 62 63 60 56 56 54 57 61 62 62 61 62 61 59 56 56 56 58 59 61 63 65 66 69 73 77
97 99 100 101 101 99 92 83 72 72 78 75 77 80 80 75 73 72 69 67 61 63 58 59 68 66 65 67 67 64 64 66 67 67 67 69 70 71 72 74 74 78 82 83
100 99 101 102 103 100 93 88 81 80 84 87 84 86 86 83 82 76 73 71 69 66 64 71 75 71 69 72 73 72 70 70 70 71 72 77 75 76 76 79 80 83 86 88
102 101 100 99 96 91 89 89 87 85 88 92 95 92 90 90 89 83 78 75 72 74 77 85 83 81 80 80 80 79 79 79 80 81 82 83 85 86 89 91 92 94 95 97
100 99 94 93 93 92 91 91 91 92 93 96 98 99 97 95 96 92 88 84 80 83 90 93 94 91 85 87 88 89 89 88 89 92 93 93 94 98 100 100 103 106 110 112
95 92 92 92 92 94 92 91 96 99 100 100 101 101 103 101 97 89 86 89 95 100 101 98 94 94 93 91 92 93 91 93 97 101 103 105 107 109 108 108 110 113 115 117
Wind_Direction
270 274 287 300 310 297 318 334 342 348 346 352 1 7 14 18 18 20 26 30 30 28 28 42 47 73 94 145 166 175 183 190 192 192 193 194 197 200 201 204 205 207 211 213
269 270 274 288 309 288 306 326 337 347 346 351 359 7 14 21 23 23 24 28 33 34 34 40 51 56 84 125 157 177 186 194 196 196 197 196 197 199 200 204 207 209 213 216
261 258 262 276 298 287 290 314 327 342 346 352 357 6 14 23 25 26 27 29 31 34 39 41 52 59 79 112 153 175 187 196 196 197 196 201 200 200 201 204 209 211 214 217
254 254 254 265 284 297 281 297 317 334 344 348 355 6 15 24 28 29 30 32 35 37 37 41 48 57 68 89 128 154 181 192 196 198 199 201 202 201 201 203 207 210 214 218
247 247 248 258 268 290 281 284 305 321 337 346 353 3 18 23 28 31 34 36 36 39 42 40 43 51 63 79 106 139 158 178 193 194 198 202 204 203 203 203 206 211 216 220
241 244 245 253 258 268 287 272 285 305 324 344 350 1 10 21 25 32 35 38 40 41 43 45 46 48 57 67 85 114 147 166 172 183 194 199 201 203 203 205 207 212 215 219
239 244 249 248 258 262 266 270 268 284 304 330 346 351 358 13 22 31 36 38 42 45 45 48 49 50 51 60 73 93 121 144 164 172 180 190 196 198 203 206 210 212 217 220
234 238 243 248 251 253 255 264 256 262 277 306 332 342 356 1 21 31 34 41 44 48 48 50 51 54 55 57 64 75 96 120 137 161 171 180 188 196 201 206 211 217 221 224
234 234 238 243 244 246 248 248 259 252 259 271 302 326 337 356 17 27 35 40 47 50 49 51 54 56 58 61 62 70 82 95 113 132 145 163 176 186 196 205 211 216 222 227
233 235 236 235 242 242 239 241 249 250 246 253 260 289 313 337 8 24 41 41 40 45 49 51 55 57 60 63 64 66 71 82 92 105 120 137 153 170 185 197 207 214 219 224
233 234 232 234 235 241 240 239 241 249 244 245 243 253 273 285 336 20 46 43 39 45 51 60 62 56 58 61 65 70 70 72 77 86 98 113 129 147 163 181 196 207 215 223
231 234 232 231 233 237 242 239 239 241 242 242 242 241 252 252 251 287 27 42 41 49 47 56 57 57 57 57 60 64 71 76 81 83 86 90 98 110 126 146 168 187 203 217
229 232 230 231 232 234 237 241 236 238 239 239 240 241 238 243 243 241 252 219 91 60 59 57 53 52 54 56 56 60 62 64 68 76 85 93 99 105 114 125 135 148 163 185
225 228 230 233 233 234 235 238 236 236 235 239 237 238 239 240 240 244 242 240 237 219 180 10 33 36 35 42 46 51 54 54 50 48 53 60 65 72 94 154 187 203 223 244
226 228 229 230 233 233 232 235 236 236 238 238 239 237 238 240 242 244 247 245 242 246 250 253 262 282 284 327 337 346 349 355 357 4 356 345 336 327 304 278 263 258 261 265
224 225 228 229 233 234 232 233 235 234 236 240 237 242 238 237 239 243 247 250 247 249 253 259 263 271 267 262 271 289 293 295 299 301 301 298 294 289 285 285 284 281 278 276
224 225 228 229 232 233 230 232 235 233 233 236 241 242 242 239 238 239 242 247 251 254 256 255 256 263 267 264 261 274 276 281 284 287 285 288 290 289 291 292 288 285 285 285
224 226 227 228 230 231 231 229 233 234 232 233 235 241 244 243 242 240 241 244 246 248 251 254 259 263 265 269 266 262 270 275 274 278 282 284 283 282 281 282 282 284 283 282
224 223 225 227 229 229 232 229 230 232 230 230 233 238 242 246 248 247 246 244 245 248 251 254 255 259 263 267 270 269 269 272 273 275 278 278 279 281 279 278 279 282 285 285
223 224 227 228 229 228 232 232 230 230 226 226 232 238 242 242 241 246 249 247 246 250 254 256 258 260 261 264 268 270 273 275 275 275 277 279 280 280 280 280 281 282 283 285
222 224 228 230 231 228 229 231 231 230 228 227 233 239 242 242 242 241 241 245 248 249 252 254 257 259 262 262 265 268 269 269 269 270 272 274 275 277 279 282 285 287 289 289
222 224 227 228 231 232 230 229 230 232 230 229 235 238 238 239 241 243 244 243 245 248 251 255 257 259 262 264 264 264 265 266 268 269 271 274 276 277 278 279 280 281 283 284
222 224 226 228 230 231 232 235 234 233 232 229 235 237 238 240 242 244 248 250 251 248 251 254 256 258 260 262 263 264 265 267 268 268 269 271 273 276 278 279 281 280 282 283
225 226 227 229 231 233 236 238 238 234 233 232 234 238 238 239 241 244 248 251 252 250 253 253 253 254 257 259 260 262 263 264 266 268 271 273 273 273 274 276 280 279 282 286
227 228 229 231 233 235 235 234 237 234 234 235 234 236 239 240 241 240 244 246 250 253 255 255 256 256 256 258 260 261 263 264 264 267 269 270 272 276 279 278 278 280 282 285
229 229 231 232 233 232 233 234 234 234 236 237 237 237 238 241 243 243 244 246 248 251 253 255 255 257 260 261 264 264 265 267 269 270 271 275 278 278 278 279 281 283 285 288
229 231 233 235 233 234 233 232 235 236 236 238 240 242 243 243 245 247 248 248 251 252 253 255 259 261 262 264 266 267 268 273 275 275 275 275 277 278 279 283 284 288 290 289